This demonstration page uses our WeatherBlox Daily Observations layout. Learn more.

Left ArrowRight Arrow

Hourly Observations for May 21, 2015

Temp ( °F °C ) Dew Point ( °F °C ) Humidity (%) Winds ( mph kmh ) Pressure ( in mb ) Visibility ( mi km ) Precip ( " mm )
12:53 am 00:53 Cloudy 53 11.7 45 7.2 74 74 N 7 11 30.02 1017 10 16 0.00 0.03
1:53 am 01:53 Cloudy 52 11.1 45 7.2 77 77 VRB 6 9 30.01 1016 10 16 0.01 0.25
2:53 am 02:53 Cloudy 51 10.6 45 7.2 80 80 VRB 6 9 30.00 1016 10 16 0.00 0.00
3:53 am 03:53 Cloudy 50 10 45 7.2 83 83 N 8 13 30.01 1016 10 16 0.00 0.00
4:53 am 04:53 Cloudy 50 10 44 6.7 80 80 N 5 7 30.01 1016 10 16 0.00 0.00
5:53 am 05:53 Cloudy 50 10 44 6.7 80 80 N 8 13 30.01 1016 10 16 0.00 0.00
6:53 am 06:53 Cloudy 50 10 44 6.7 80 80 N 5 7 30.04 1017 10 16 0.00 0.00
7:53 am 07:53 Cloudy 50 10 44 6.7 80 80 N 7 11 30.05 1018 10 16 0.00 0.00
8:28 am 08:28 Cloudy 50 10 44 6.7 80 80 N 3 6 30.09 1019 10 16 0.00 0.00
8:53 am 08:53 Cloudy 52 11.1 44 6.7 75 75 NNW 7 11 30.06 1018 10 16 0.00 0.00
9:53 am 09:53 Cloudy 53 11.7 45 7.2 74 74 NNW 7 11 30.06 1018 10 16 0.00 0.00
10:02 am 10:02 Cloudy 53 11.7 45 7.2 74 74 N 7 11 30.09 1019 10 16 0.00 0.00
10:15 am 10:15 Cloudy 54 12.2 45 7.2 72 72 NNW 8 13 30.09 1019 10 16 0.00 0.00
10:53 am 10:53 Cloudy 54 12.2 44 6.7 69 69 NNW 5 7 30.06 1018 10 16 0.00 0.00
11:24 am 11:24 Cloudy 54 12.2 44 6.7 69 69 NW 7 11 30.09 1019 10 16 0.00 0.00
11:34 am 11:34 Cloudy 54 12.2 44 6.7 69 69 WNW 8 13 30.09 1019 10 16 0.00 0.00
11:53 am 11:53 Cloudy 54 12.2 44 6.7 69 69 NNW 10 17 30.07 1018 10 16 0.00 0.00
12:23 pm 12:23 Cloudy 55 12.8 42 5.6 62 62 N 12 19 30.09 1019 10 16 0.00 0.00
12:53 pm 12:53 Cloudy 57 13.9 42 5.6 58 58 VRB 7 11 30.07 1018 10 16 0.00 0.00
1:53 pm 13:53 Cloudy 58 14.4 41 5 53 53 N 9 15 30.06 1018 10 16 0.00 0.00
2:53 pm 14:53 Cloudy 57 13.9 40 4.4 53 53 N 9 15 30.08 1019 10 16 0.00 0.00
3:53 pm 15:53 Cloudy with Light Rain 57 13.9 41 5 55 55 NW 16 26 30.09 1019 10 16 0.00 0.03
4:53 pm 16:53 Cloudy 57 13.9 41 5 55 55 NNW 12 19 30.10 1019 10 16 0.00 0.03
5:53 pm 17:53 Cloudy 58 14.4 42 5.6 56 56 NW 9 15 30.09 1019 10 16 0.00 0.00
6:53 pm 18:53 Mostly Cloudy 59 15 42 5.6 54 54 NW 12 19 30.09 1019 10 16 0.00 0.00
7:53 pm 19:53 Sunny 59 15 41 5 51 51 W 6 9 30.09 1019 10 16 0.00 0.00
8:53 pm 20:53 Clear 52 11.1 43 6.1 72 72 Calm 30.10 1019 10 16 0.00 0.00
9:53 pm 21:53 Clear 46 7.8 42 5.6 86 86 Calm 30.11 1020 10 16 0.00 0.00
10:53 pm 22:53 Clear 44 6.7 42 5.6 93 93 Calm 30.13 1020 10 16 0.00 0.00
11:53 pm 23:53 Clear 43 6.1 41 5 93 93 Calm 30.14 1021 10 16 0.00 0.00

Powered by AerisWeather